Charlottesville, VA

7:54 AM EDT on October 15, 2019 (GMT -0400)
Charlottesville-Albemarle

Weather History for KCHO - August, 2019

Change the Weather History Date:

Friday, August 2, 2019

  Actual Average Record
Temperature  
Mean Temperature 77 °F 75 °F  
Max Temperature 85 °F 86 °F 101 °F (1954)
Min Temperature 68 °F 65 °F 55 °F (1990)
Degree Days  
Heating Degree Days 0 0  
Month to date heating degree days 0 0  
Since 1 June heating degree days 0 12  
Since 1 July heating degree days 0 1  
Cooling Degree Days 12 10  
Month to date cooling degree days 25 20  
Year to date cooling degree days 1093 650  
Since 1 June cooling degree days 807 564  
Growing Degree Days 26 (Base 50)    
Moisture  
Dew Point 66 °F    
Average Humidity 73    
Maximum Humidity 87    
Minimum Humidity 58    
Precipitation  
Precipitation T in 0.15 in 0.71 in (1984)
Month to date precipitation 0.22 0.28  
Year to date precipitation 25.52 24.80  
Sea Level Pressure  
Sea Level Pressure 30.08 in    
Wind  
Wind Speed 4 mph (SE)    
Max Wind Speed 17 mph    
Max Gust Speed 21 mph    
Visibility 10 miles    
Events Rain , Thunderstorm    
T = Trace of Precipitation, MM = Missing Value Source: NWS Daily Summary

Daily Weather History Graph

Daily Weather History Graph

Search for Another Location

Airport or City:

Astronomy

Aug. 02, 2019 Rise Set
Actual Time 6:17 AM EDT 8:22 PM EDT
Civil Twilight 5:47 AM EDT 8:51 PM EDT
Nautical Twilight 5:12 AM EDT 9:27 PM EDT
Astronomical Twilight 4:33 AM EDT 10:05 PM EDT
Moon 7:52 AM EDT (8/2) 9:51 PM EDT (8/2)
Length of Visible Light 15h 03m
Length of Day
14h 05m
Waxing Crescent, 4% of the Moon is Illuminated
Aug 2
Waxing Crescent
Aug 7
First Quarter
Aug 15
Full
Aug 23
Last Quarter
Aug 30
New

Hourly Weather History & Observations

Time (EDT) Temp. Heat Index Dew Point Humidity Pressure Visibility Wind Dir Wind Speed Gust Speed Precip Events Conditions
12:04 AM 71.1 °F - 64.0 °F 78% 30.11 in 4.0 mi SSE 9.2 mph - 0.07 in Rain , Thunderstorm Heavy Rain
12:53 AM 70.0 °F - 66.0 °F 87% 30.07 in 10.0 mi SSW 8.1 mph - 0.10 in Rain , Thunderstorm Light Rain
1:11 AM 71.1 °F - 64.9 °F 81% 30.11 in 10.0 mi SW 9.2 mph - 0.00 in   Mostly Cloudy
1:53 AM 70.0 °F - 64.9 °F 84% 30.09 in 10.0 mi Calm Calm - 0.00 in   Partly Cloudy
2:53 AM 69.1 °F - 64.9 °F 87% 30.08 in 10.0 mi Calm Calm - N/A   Clear
3:53 AM 68.0 °F - 64.9 °F 90% 30.04 in 10.0 mi South 4.6 mph - N/A   Clear
4:10 AM 68.0 °F - 64.9 °F 90% 30.08 in 9.0 mi South 6.9 mph - N/A   Partly Cloudy
4:53 AM 68.0 °F - 64.0 °F 87% 30.06 in 10.0 mi Variable 3.5 mph - N/A   Clear
5:53 AM 68.0 °F - 64.0 °F 87% 30.08 in 10.0 mi NNE 3.5 mph - N/A   Clear
6:19 AM 68.0 °F - 64.9 °F 90% 30.11 in 9.0 mi NNE 4.6 mph - N/A   Scattered Clouds
6:53 AM 69.1 °F - 64.0 °F 84% 30.09 in 10.0 mi North 5.8 mph - N/A   Partly Cloudy
7:53 AM 70.0 °F - 64.9 °F 84% 30.11 in 10.0 mi NNE 4.6 mph - N/A   Mostly Cloudy
8:53 AM 72.0 °F - 64.9 °F 78% 30.12 in 10.0 mi NNW 3.5 mph - N/A   Clear
9:53 AM 75.0 °F - 64.9 °F 71% 30.12 in 10.0 mi East 3.5 mph - N/A   Clear
10:53 AM 77.0 °F - 64.0 °F 64% 30.13 in 10.0 mi Variable 5.8 mph - N/A   Clear
11:53 AM 79.0 °F - 66.0 °F 64% 30.14 in 10.0 mi Calm Calm - N/A   Partly Cloudy
12:53 PM 81.0 °F 83.0 °F 66.0 °F 60% 30.12 in 10.0 mi Variable 5.8 mph - N/A   Partly Cloudy
1:53 PM 82.0 °F 84.1 °F 66.0 °F 58% 30.09 in 10.0 mi Calm Calm - N/A   Clear
2:53 PM 82.9 °F 85.0 °F 66.0 °F 56% 30.07 in 10.0 mi SE 8.1 mph - N/A   Clear
3:53 PM 84.9 °F 88.2 °F 68.0 °F 57% 30.06 in 10.0 mi ESE 8.1 mph - N/A   Clear
4:53 PM 84.0 °F 87.0 °F 68.0 °F 58% 30.04 in 10.0 mi SSE 6.9 mph - N/A   Partly Cloudy
5:53 PM 82.9 °F 85.4 °F 66.9 °F 58% 30.05 in 10.0 mi SSE 6.9 mph - N/A   Mostly Cloudy
6:53 PM 82.9 °F 85.4 °F 66.9 °F 58% 30.04 in 10.0 mi SSE 5.8 mph - N/A   Clear
7:53 PM 82.0 °F 84.5 °F 66.9 °F 60% 30.04 in 10.0 mi ESE 3.5 mph - N/A   Clear
8:53 PM 78.1 °F - 64.9 °F 64% 30.06 in 10.0 mi SSE 5.8 mph - N/A   Clear
9:53 PM 75.9 °F - 66.0 °F 71% 30.07 in 10.0 mi Calm Calm - N/A   Clear
10:53 PM 73.0 °F - 66.9 °F 81% 30.07 in 10.0 mi Calm Calm - N/A   Clear
11:53 PM 73.0 °F - 68.0 °F 84% 30.07 in 10.0 mi Calm Calm - N/A   Scattered Clouds